Regional Weather Roundup
Issued by NWS Charleston, SC

Current Version | Previous Version | Graphics & Text | Print | Product List | Glossary On
Versions: 1 2 3 4 5 6 7 8 9 10 11 12 13 14 15 16 17 18 19 20 21 22 23 24 25 26 27 28 29 30 31 32 33 34 35 36 37 38 39 40 41 42 43 44 45 46 47 48 49 50
000 ASUS42 KCHS 061612 RWRCHS REGIONAL WEATHER ROUNDUP NATIONAL WEATHER SERVICE CHARLESTON SC 1100 AM EST SAT FEB 06 2016 NOTE: "FAIR" INDICATES FEW OR NO CLOUDS BELOW 12,000 FEET WITH NO SIGNIFICANT WEATHER AND/OR OBSTRUCTIONS TO VISIBILITY. NOT ALL STATIONS ARE QUALITY CONTROLLED BY THE NATIONAL WEATHER SERVICE. USE DATA WITH CAUTION...ESPECIALLY DEWPOINT OBSERVATIONS. NOTICE: OBSERVATIONS FOR THE SAVANNAH-HILTON HEAD INTERNATIONAL AIRPORT /KSAV/ HAVE BEEN TEMPORARILY REMOVED DUE TO AN ERRONEOUS TEMPERATURE SENSOR. THE OBSERVATION WILL BE REINTRODUCED ONCE REPAIRS ARE COMPLETE. SCZ027-030-031-034>040-042>050-061700- ...SOUTHEAST SOUTH CAROLINA... CITY SKY/WX TMP DP RH WIND PRES REMARKS N CHARLESTON PTSUNNY 48 24 39 NE15 30.36F WATERFRONT PRK N/A 46 30 53 NE13 30.22F MOUNT PLEASANT FAIR 46 28 49 NE7 30.37F JOHNS ISLAND PTSUNNY 48 27 43 N10 30.36F PINOPOLIS N/A 46 28 49 E13 30.32R MONCKS CORNER PTSUNNY 45 21 39 NE8 30.38F SUMMERVILLE PTSUNNY 48 30 49 NE12G18 30.37F BEAUFORT MCAS PTSUNNY 50 25 37 NE15 30.35F BEAUFORT ARPT PTSUNNY 46 30 53 NE16 30.34F HAZE HILTON HEAD IS PTSUNNY 48 34 57 NE12G21 30.36S WALTERBORO PTSUNNY 50 28 43 E12G20 30.37F ALLENDALE FAIR 46 25 42 VRB5G13 30.36F ...SOUTHERN MIDLANDS AND PEE DEE... CITY SKY/WX TMP DP RH WIND PRES REMARKS GEORGETOWN NOT AVBL KINGSTREE NOT AVBL ORANGEBURG PTSUNNY 47 27 45 NE8 30.38F BARNWELL PTSUNNY 45 30 57 NE10 30.38S AIKEN PTSUNNY 45 23 42 NE10 30.41S MANNING FAIR 46 3 17 NE8 30.39S COLUMBIA PTSUNNY 47 22 37 NE12 30.40R SUMTER MOSUNNY 44 26 48 NE12 30.38S FLORENCE MOSUNNY 44 28 53 E9 30.41S MYRTLE BEACH PTSUNNY 48 28 46 N9 30.42F N MYRTLE BEACH PTSUNNY 47 25 42 NE13 30.39F $$ GAZ063-065-086>088-099>101-113>116-118-119-134>141-150-061700- ...SOUTHEAST GEORGIA... CITY SKY/WX TMP DP RH WIND PRES REMARKS SAVANNAH ARPT CLOUDY 50 25 37 NE13 30.34F HUNTER AAF CLOUDY 50 28 42 E12G20 30.31F FORT STEWART PTSUNNY 50 27 40 E8 30.32S STATESBORO CLOUDY 51 18 26 NE6 30.34F SYLVANIA CLOUDY 47 31 53 E7 30.36F CLAXTON FAIR 50 29 43 NE15 30.34F ...CSRA...CENTRAL AND FAR SOUTHEAST GEORGIA... CITY SKY/WX TMP DP RH WIND PRES REMARKS THOMSON SUNNY 47 32 54 NE7 30.43S AUGUSTA-BUSH PTSUNNY 45 29 53 N6 30.38F AUGUSTA-DANIEL CLOUDY 48 21 34 NE12 30.38F SWAINSBORO CLOUDY 46 27 46 NE8 30.36S VIDALIA CLOUDY 48 28 46 NE7 30.33F EASTMAN CLOUDY 47 27 44 NE8 30.38S HAZLEHURST CLOUDY 49 27 42 E9 30.32F ALMA MOSUNNY 50 28 42 E7 30.32F WAYCROSS CLOUDY 53 33 47 E9 30.31F JESUP PTSUNNY 52 32 46 E9 30.33S BAXLEY CLOUDY 52 28 40 E12 30.32F BRUNSWICK CLOUDY 52 37 58 NE16 30.33F SAINT SIMONS CLOUDY 51 40 65 NE13 30.32S $$ SCZ027-028-034-036>038-045-046-048>050-GAZ119-141-061700- ...LAKE AND SUPPLEMENTAL COASTAL OBSERVATIONS... STATION/POSITION TIME TEMP WIND PRES WAVE SWELL AIR SEA DIR/SP/G HT/PER HT/PER/DIR (UTC) (F) (DEG/KT/KT) (MB) (FT/S) (FT/S/D) WINYAH BAY NOT AVBL LAKE MURRAY 1500 40 30/ 3/ 5 1029.1R ACE BASIN NERRS NOT AVBL FORT PULASKI 1500 47 54 30/ 11/ 14 1027.9R SAPELO ISLAND 1500 50 30/ 16 1026.0S $$ ANZ835-935-AMZ111-154-330-350-352-354-370-450-454-472-061700- ...C-MAN AND BUOY OBSERVATIONS... STATION/POSITION TIME TEMP WIND PRES WAVE SWELL AIR SEA DIR/SP/G HT/PER HT/PER/DIR (UTC) (F) (DEG/KT/KT) (MB) (FT/S) (FT/S/D) BUOY 41004 1550 53 65 30/ 21/ 27 1026.5F 6/ 6 2/ 9 BUOY 41008 1550 52 56 50/ 21/ 27 1026.1R 7/ 6 2/ 70/10 FOLLY BEACH CMAN 1600 46 30/ 18/ 20 1028.0F CAPERS NEARSHORE 1508 47 50/ 19/ 23 1028.1R FRIPP NEARSHORE 1500 48 50/ 21/ 25 1026.6R STATION/POSITION TIME TEMP WIND PRES WAVE SWELL AIR SEA DIR/SP/G HT/PER HT/PER/DIR (UTC) (F) (DEG/KT/KT) (MB) (FT/S) (FT/S/D) 5E ST. MARYS GA 1551 57 N/A 7/ 7 2/100/11 FRYING PAN BUOY 1500 50 69 10/ 19/ 27 1029.0R BUOY 41025 1550 48 72 10/ 17/ 23 1029.9R 6/11 5/ 60/11 CAPE LOOKOUT NC NOT AVBL BUOY 41002 1550 62 69 70/ 6/ 10 N/A 9/11 8/ 20/11 BUOY 41010 1520 69 74 1023.0F ST AUGUSTINE FL 1600 55 58 360/ 26/ 28 1024.7F $$

USA.gov is the U.S. government's official web portal to all federal, state and local government web resources and services.